M I D A S
Marine Information and Data Acquisition System
Tripno 1551 of the Zeeleeuw from 2008-04-17 07:09:46 to 2008-04-17 12:08:12
Back to CruiseResearch ActivitiesStationsMapUnderway DataData graphs

EquipmentUnitsComments
TimeDGPSUTC
LatitudeDGPSDM.mWGS84
LongitudeDGPSDM.mWGS84
SpeedMeteo Stationm/sRelative wind speed
DirectionMeteo StationdegRelative wind direction
TemperatureMeteo Stationdeg CelciusAir temperature
PressureMeteo StationPaAtmospheric pressure
HumidityMeteo Station%Relative humidity
Missing or incorrect values are displayed as -999
Metereological data collected by the RV Zeeleeuw from 2008-04-17 07:09:16 to 2008-04-17 12:17:56
                                                                                    Next 1000 lines
Time Latitude Longitude Speed Direction Temperature Pressure Humidity
2008-04-17 07:09:26 51°13.665 2°55.955 -999 -999 -999 -999 -999
2008-04-17 07:09:31 51°13.665 2°55.955 -999 -999 -999 -999 -999
2008-04-17 07:09:36 51°13.665 2°55.955 -999 -999 -999 -999 -999
2008-04-17 07:09:41 51°13.664 2°55.955 -999 -999 -999 -999 -999
2008-04-17 07:09:46 51°13.664 2°55.955 -999 -999 -999 -999 -999
2008-04-17 07:09:51 51°13.664 2°55.955 -999 -999 -999 -999 -999
2008-04-17 07:09:56 51°13.664 2°55.955 -999 -999 -999 -999 -999
2008-04-17 07:10:01 51°13.664 2°55.955 -999 -999 -999 -999 -999
2008-04-17 07:10:06 51°13.665 2°55.954 -999 -999 -999 -999 -999
2008-04-17 07:10:11 51°13.665 2°55.953 -999 -999 -999 -999 -999
2008-04-17 07:10:16 51°13.666 2°55.95 -999 -999 -999 -999 -999
2008-04-17 07:10:21 51°13.667 2°55.947 -999 -999 -999 -999 -999
2008-04-17 07:10:26 51°13.668 2°55.943 -999 -999 -999 -999 -999
2008-04-17 07:10:31 51°13.67 2°55.937 -999 -999 -999 -999 -999
2008-04-17 07:10:36 51°13.671 2°55.932 -999 -999 -999 -999 -999
2008-04-17 07:10:41 51°13.673 2°55.925 -999 -999 -999 -999 -999
2008-04-17 07:10:46 51°13.674 2°55.918 -999 -999 -999 -999 -999
2008-04-17 07:10:51 51°13.676 2°55.91 -999 -999 -999 -999 -999
2008-04-17 07:10:56 51°13.678 2°55.902 -999 -999 -999 -999 -999
2008-04-17 07:11:01 51°13.679 2°55.893 -999 -999 -999 -999 -999
2008-04-17 07:11:06 51°13.681 2°55.884 -999 -999 -999 -999 -999
2008-04-17 07:11:11 51°13.682 2°55.875 -999 -999 -999 -999 -999
2008-04-17 07:11:16 51°13.684 2°55.865 -999 -999 -999 -999 -999
2008-04-17 07:11:21 51°13.686 2°55.855 -999 -999 -999 -999 -999
2008-04-17 07:11:26 51°13.687 2°55.845 -999 -999 -999 -999 -999
2008-04-17 07:11:31 51°13.689 2°55.836 -999 -999 -999 -999 -999
2008-04-17 07:11:36 51°13.69 2°55.826 -999 -999 -999 -999 -999
2008-04-17 07:11:41 51°13.692 2°55.817 -999 -999 -999 -999 -999
2008-04-17 07:11:46 51°13.693 2°55.808 -999 -999 -999 -999 -999
2008-04-17 07:11:51 51°13.695 2°55.8 -999 -999 -999 -999 -999
2008-04-17 07:11:56 51°13.696 2°55.792 -999 -999 -999 -999 -999
2008-04-17 07:12:01 51°13.697 2°55.785 -999 -999 -999 -999 -999
2008-04-17 07:12:06 51°13.698 2°55.779 -999 -999 -999 -999 -999
2008-04-17 07:12:11 51°13.699 2°55.776 -999 -999 -999 -999 -999
2008-04-17 07:12:16 51°13.699 2°55.774 -999 -999 -999 -999 -999
2008-04-17 07:12:21 51°13.7 2°55.774 -999 -999 -999 -999 -999
2008-04-17 07:12:26 51°13.7 2°55.775 -999 -999 -999 -999 -999
2008-04-17 07:12:31 51°13.701 2°55.776 -999 -999 -999 -999 -999
2008-04-17 07:12:36 51°13.701 2°55.777 -999 -999 -999 -999 -999
2008-04-17 07:12:41 51°13.701 2°55.777 -999 -999 -999 -999 -999
2008-04-17 07:12:46 51°13.701 2°55.775 -999 -999 -999 -999 -999
2008-04-17 07:12:51 51°13.701 2°55.773 -999 -999 -999 -999 -999
2008-04-17 07:12:56 51°13.7 2°55.77 -999 -999 -999 -999 -999
2008-04-17 07:13:01 51°13.698 2°55.766 -999 -999 -999 -999 -999
2008-04-17 07:13:06 51°13.697 2°55.762 -999 -999 -999 -999 -999
2008-04-17 07:13:11 51°13.695 2°55.757 -999 -999 -999 -999 -999
2008-04-17 07:13:16 51°13.693 2°55.752 -999 -999 -999 -999 -999
2008-04-17 07:13:21 51°13.691 2°55.748 -999 -999 -999 -999 -999
2008-04-17 07:13:26 51°13.69 2°55.744 -999 -999 -999 -999 -999
2008-04-17 07:13:31 51°13.689 2°55.741 -999 -999 -999 -999 -999
2008-04-17 07:13:36 51°13.688 2°55.739 -999 -999 -999 -999 -999
2008-04-17 07:13:41 51°13.689 2°55.739 -999 -999 -999 -999 -999
2008-04-17 07:13:46 51°13.69 2°55.739 -999 -999 -999 -999 -999
2008-04-17 07:13:51 51°13.693 2°55.74 -999 -999 -999 -999 -999
2008-04-17 07:13:56 51°13.696 2°55.74 -999 -999 -999 -999 -999
2008-04-17 07:14:01 51°13.701 2°55.739 -999 -999 -999 -999 -999
2008-04-17 07:14:06 51°13.705 2°55.737 -999 -999 -999 -999 -999
2008-04-17 07:14:11 51°13.709 2°55.735 -999 -999 -999 -999 -999
2008-04-17 07:14:16 51°13.713 2°55.733 -999 -999 -999 -999 -999
2008-04-17 07:14:21 51°13.717 2°55.73 -999 -999 -999 -999 -999
2008-04-17 07:14:26 51°13.722 2°55.727 -999 -999 -999 -999 -999
2008-04-17 07:14:31 51°13.726 2°55.723 -999 -999 -999 -999 -999
2008-04-17 07:14:36 51°13.73 2°55.72 -999 -999 -999 -999 -999
2008-04-17 07:14:41 51°13.734 2°55.716 -999 -999 -999 -999 -999
2008-04-17 07:14:46 51°13.738 2°55.712 -999 -999 -999 -999 -999
2008-04-17 07:14:51 51°13.743 2°55.708 -999 -999 -999 -999 -999
2008-04-17 07:14:56 51°13.748 2°55.704 -999 -999 -999 -999 -999
2008-04-17 07:15:01 51°13.753 2°55.699 -999 -999 -999 -999 -999
2008-04-17 07:15:06 51°13.759 2°55.694 -999 -999 -999 -999 -999
2008-04-17 07:15:11 51°13.764 2°55.689 -999 -999 -999 -999 -999
2008-04-17 07:15:16 51°13.77 2°55.684 -999 -999 -999 -999 -999
2008-04-17 07:15:21 51°13.776 2°55.678 -999 -999 -999 -999 -999
2008-04-17 07:15:26 51°13.782 2°55.673 -999 -999 -999 -999 -999
2008-04-17 07:15:31 51°13.787 2°55.668 -999 -999 -999 -999 -999
2008-04-17 07:15:36 51°13.793 2°55.663 -999 -999 -999 -999 -999
2008-04-17 07:15:41 51°13.799 2°55.658 -999 -999 -999 -999 -999
2008-04-17 07:15:46 51°13.806 2°55.654 -999 -999 -999 -999 -999
2008-04-17 07:15:51 51°13.812 2°55.649 -999 -999 -999 -999 -999
2008-04-17 07:15:56 51°13.818 2°55.644 -999 -999 -999 -999 -999
2008-04-17 07:16:01 51°13.824 2°55.639 -999 -999 -999 -999 -999
2008-04-17 07:16:06 51°13.831 2°55.634 -999 -999 -999 -999 -999
2008-04-17 07:16:11 51°13.838 2°55.629 -999 -999 -999 -999 -999
2008-04-17 07:16:16 51°13.845 2°55.623 -999 -999 -999 -999 -999
2008-04-17 07:16:21 51°13.852 2°55.618 -999 -999 -999 -999 -999
2008-04-17 07:16:26 51°13.859 2°55.613 -999 -999 -999 -999 -999
2008-04-17 07:16:31 51°13.866 2°55.607 -999 -999 -999 -999 -999
2008-04-17 07:16:36 51°13.873 2°55.602 -999 -999 -999 -999 -999
2008-04-17 07:16:40 51°13.878 2°55.598 -999 -999 -999 -999 -999
2008-04-17 07:16:46 51°13.887 2°55.591 -999 -999 -999 -999 -999
2008-04-17 07:16:51 51°13.894 2°55.585 -999 -999 -999 -999 -999
2008-04-17 07:16:56 51°13.902 2°55.58 -999 -999 -999 -999 -999
2008-04-17 07:17:01 51°13.909 2°55.575 -999 -999 -999 -999 -999
2008-04-17 07:17:06 51°13.916 2°55.569 -999 -999 -999 -999 -999
2008-04-17 07:17:11 51°13.923 2°55.564 -999 -999 -999 -999 -999
2008-04-17 07:17:16 51°13.929 2°55.559 -999 -999 -999 -999 -999
2008-04-17 07:17:21 51°13.936 2°55.554 -999 -999 -999 -999 -999
2008-04-17 07:17:26 51°13.943 2°55.549 -999 -999 -999 -999 -999
2008-04-17 07:17:31 51°13.949 2°55.544 -999 -999 -999 -999 -999
2008-04-17 07:17:36 51°13.956 2°55.539 -999 -999 -999 -999 -999
2008-04-17 07:17:41 51°13.962 2°55.534 -999 -999 -999 -999 -999
2008-04-17 07:17:46 51°13.968 2°55.53 -999 -999 -999 -999 -999
2008-04-17 07:17:51 51°13.974 2°55.525 -999 -999 -999 -999 -999
2008-04-17 07:17:56 51°13.98 2°55.521 -999 -999 -999 -999 -999
2008-04-17 07:18:01 51°13.987 2°55.516 -999 -999 -999 -999 -999
2008-04-17 07:18:06 51°13.993 2°55.512 -999 -999 -999 -999 -999
2008-04-17 07:18:11 51°13.999 2°55.508 -999 -999 -999 -999 -999
2008-04-17 07:18:16 51°14.005 2°55.504 -999 -999 -999 -999 -999
2008-04-17 07:18:21 51°14.011 2°55.5 -999 -999 -999 -999 -999
2008-04-17 07:18:26 51°14.016 2°55.495 -999 -999 -999 -999 -999
2008-04-17 07:18:31 51°14.022 2°55.491 -999 -999 -999 -999 -999
2008-04-17 07:18:36 51°14.028 2°55.487 -999 -999 -999 -999 -999
2008-04-17 07:18:41 51°14.034 2°55.482 -999 -999 -999 -999 -999
2008-04-17 07:18:46 51°14.04 2°55.478 -999 -999 -999 -999 -999
2008-04-17 07:18:51 51°14.046 2°55.472 -999 -999 -999 -999 -999
2008-04-17 07:18:56 51°14.052 2°55.466 -999 -999 -999 -999 -999
2008-04-17 07:19:01 51°14.058 2°55.461 -999 -999 -999 -999 -999
2008-04-17 07:19:06 51°14.064 2°55.456 -999 -999 -999 -999 -999
2008-04-17 07:19:11 51°14.071 2°55.452 -999 -999 -999 -999 -999
2008-04-17 07:19:16 51°14.077 2°55.447 -999 -999 -999 -999 -999
2008-04-17 07:19:21 51°14.083 2°55.442 -999 -999 -999 -999 -999
2008-04-17 07:19:26 51°14.09 2°55.437 -999 -999 -999 -999 -999
2008-04-17 07:19:31 51°14.096 2°55.431 -999 -999 -999 -999 -999
2008-04-17 07:19:36 51°14.103 2°55.425 -999 -999 -999 -999 -999
2008-04-17 07:19:41 51°14.109 2°55.42 -999 -999 -999 -999 -999
2008-04-17 07:19:46 51°14.116 2°55.415 -999 -999 -999 -999 -999
2008-04-17 07:19:51 51°14.123 2°55.409 -999 -999 -999 -999 -999
2008-04-17 07:19:56 51°14.13 2°55.403 -999 -999 -999 -999 -999
2008-04-17 07:20:01 51°14.137 2°55.396 -999 -999 -999 -999 -999
2008-04-17 07:20:06 51°14.145 2°55.39 -999 -999 -999 -999 -999
2008-04-17 07:20:11 51°14.153 2°55.383 -999 -999 -999 -999 -999
2008-04-17 07:20:16 51°14.162 2°55.376 -999 -999 -999 -999 -999
2008-04-17 07:20:21 51°14.17 2°55.368 -999 -999 -999 -999 -999
2008-04-17 07:20:26 51°14.179 2°55.359 -999 -999 -999 -999 -999
2008-04-17 07:20:31 51°14.188 2°55.35 -999 -999 -999 -999 -999
2008-04-17 07:20:36 51°14.197 2°55.341 -999 -999 -999 -999 -999
2008-04-17 07:20:41 51°14.207 2°55.331 -999 -999 -999 -999 -999
2008-04-17 07:20:46 51°14.215 2°55.32 -999 -999 -999 -999 -999
2008-04-17 07:20:51 51°14.224 2°55.308 -999 -999 -999 -999 -999
2008-04-17 07:20:56 51°14.233 2°55.296 -999 -999 -999 -999 -999
2008-04-17 07:21:01 51°14.241 2°55.284 -999 -999 -999 -999 -999
2008-04-17 07:21:06 51°14.25 2°55.271 -999 -999 -999 -999 -999
2008-04-17 07:21:11 51°14.258 2°55.258 -999 -999 -999 -999 -999
2008-04-17 07:21:16 51°14.266 2°55.244 -999 -999 -999 -999 -999
2008-04-17 07:21:21 51°14.273 2°55.23 -999 -999 -999 -999 -999
2008-04-17 07:21:26 51°14.281 2°55.215 -999 -999 -999 -999 -999
2008-04-17 07:21:31 51°14.288 2°55.201 -999 -999 -999 -999 -999
2008-04-17 07:21:36 51°14.295 2°55.186 -999 -999 -999 -999 -999
2008-04-17 07:21:40 51°14.301 2°55.174 -999 -999 -999 -999 -999
2008-04-17 07:21:46 51°14.309 2°55.156 -999 -999 -999 -999 -999
2008-04-17 07:21:51 51°14.317 2°55.141 -999 -999 -999 -999 -999
2008-04-17 07:21:56 51°14.324 2°55.126 -999 -999 -999 -999 -999
2008-04-17 07:22:01 51°14.331 2°55.111 -999 -999 -999 -999 -999
2008-04-17 07:22:06 51°14.339 2°55.096 -999 -999 -999 -999 -999
2008-04-17 07:22:11 51°14.347 2°55.082 -999 -999 -999 -999 -999
2008-04-17 07:22:16 51°14.354 2°55.067 -999 -999 -999 -999 -999
2008-04-17 07:22:21 51°14.361 2°55.052 -999 -999 -999 -999 -999
2008-04-17 07:22:26 51°14.369 2°55.037 -999 -999 -999 -999 -999
2008-04-17 07:22:31 51°14.376 2°55.021 -999 -999 -999 -999 -999
2008-04-17 07:22:35 51°14.382 2°55.008 -999 -999 -999 -999 -999
2008-04-17 07:22:41 51°14.391 2°54.989 -999 -999 -999 -999 -999
2008-04-17 07:22:46 51°14.399 2°54.973 -999 -999 -999 -999 -999
2008-04-17 07:22:51 51°14.407 2°54.957 -999 -999 -999 -999 -999
2008-04-17 07:22:56 51°14.415 2°54.942 -999 -999 -999 -999 -999
2008-04-17 07:23:01 51°14.424 2°54.926 -999 -999 -999 -999 -999
2008-04-17 07:23:06 51°14.433 2°54.911 -999 -999 -999 -999 -999
2008-04-17 07:23:11 51°14.443 2°54.897 -999 -999 -999 -999 -999
2008-04-17 07:23:16 51°14.453 2°54.883 -999 -999 -999 -999 -999
2008-04-17 07:23:21 51°14.463 2°54.869 -999 -999 -999 -999 -999
2008-04-17 07:23:26 51°14.473 2°54.855 -999 -999 -999 -999 -999
2008-04-17 07:23:31 51°14.483 2°54.842 -999 -999 -999 -999 -999
2008-04-17 07:23:36 51°14.493 2°54.828 -999 -999 -999 -999 -999
2008-04-17 07:23:40 51°14.502 2°54.817 -999 -999 -999 -999 -999
2008-04-17 07:23:46 51°14.515 2°54.801 -999 -999 -999 -999 -999
2008-04-17 07:23:51 51°14.526 2°54.788 -999 -999 -999 -999 -999
2008-04-17 07:23:56 51°14.537 2°54.775 -999 -999 -999 -999 -999
2008-04-17 07:24:01 51°14.547 2°54.763 -999 -999 -999 -999 -999
2008-04-17 07:24:06 51°14.558 2°54.75 -999 -999 -999 -999 -999
2008-04-17 07:24:11 51°14.57 2°54.738 -999 -999 -999 -999 -999
2008-04-17 07:24:16 51°14.58 2°54.725 -999 -999 -999 -999 -999
2008-04-17 07:24:21 51°14.591 2°54.712 -999 -999 -999 -999 -999
2008-04-17 07:24:26 51°14.602 2°54.699 -999 -999 -999 -999 -999
2008-04-17 07:24:31 51°14.613 2°54.686 -999 -999 -999 -999 -999
2008-04-17 07:24:36 51°14.624 2°54.672 -999 -999 -999 -999 -999
2008-04-17 07:24:41 51°14.635 2°54.659 -999 -999 -999 -999 -999
2008-04-17 07:24:46 51°14.646 2°54.645 -999 -999 -999 -999 -999
2008-04-17 07:24:51 51°14.656 2°54.632 -999 -999 -999 -999 -999
2008-04-17 07:24:56 51°14.667 2°54.618 -999 -999 -999 -999 -999
2008-04-17 07:25:01 51°14.678 2°54.604 -999 -999 -999 -999 -999
2008-04-17 07:25:06 51°14.689 2°54.591 -999 -999 -999 -999 -999
2008-04-17 07:25:11 51°14.7 2°54.578 -999 -999 -999 -999 -999
2008-04-17 07:25:16 51°14.711 2°54.564 -999 -999 -999 -999 -999
2008-04-17 07:25:21 51°14.721 2°54.551 -999 -999 -999 -999 -999
2008-04-17 07:25:26 51°14.732 2°54.537 -999 -999 -999 -999 -999
2008-04-17 07:25:31 51°14.743 2°54.524 -999 -999 -999 -999 -999
2008-04-17 07:25:36 51°14.754 2°54.51 -999 -999 -999 -999 -999
2008-04-17 07:25:40 51°14.763 2°54.5 -999 -999 -999 -999 -999
2008-04-17 07:25:46 51°14.776 2°54.484 -999 -999 -999 -999 -999
2008-04-17 07:25:51 51°14.787 2°54.47 -999 -999 -999 -999 -999
2008-04-17 07:25:56 51°14.798 2°54.457 -999 -999 -999 -999 -999
2008-04-17 07:26:00 51°14.806 2°54.447 -999 -999 -999 -999 -999
2008-04-17 07:26:06 51°14.819 2°54.431 -999 -999 -999 -999 -999
2008-04-17 07:26:11 51°14.83 2°54.418 -999 -999 -999 -999 -999
2008-04-17 07:26:16 51°14.841 2°54.405 -999 -999 -999 -999 -999
2008-04-17 07:26:21 51°14.852 2°54.392 -999 -999 -999 -999 -999
2008-04-17 07:26:26 51°14.863 2°54.378 -999 -999 -999 -999 -999
2008-04-17 07:26:31 51°14.874 2°54.365 -999 -999 -999 -999 -999
2008-04-17 07:26:36 51°14.884 2°54.351 -999 -999 -999 -999 -999
2008-04-17 07:26:41 51°14.895 2°54.338 -999 -999 -999 -999 -999
2008-04-17 07:26:46 51°14.905 2°54.324 -999 -999 -999 -999 -999
2008-04-17 07:26:51 51°14.916 2°54.311 -999 -999 -999 -999 -999
2008-04-17 07:26:56 51°14.927 2°54.298 -999 -999 -999 -999 -999
2008-04-17 07:27:01 51°14.937 2°54.285 -999 -999 -999 -999 -999
2008-04-17 07:27:06 51°14.948 2°54.272 -999 -999 -999 -999 -999
2008-04-17 07:27:11 51°14.958 2°54.258 -999 -999 -999 -999 -999
2008-04-17 07:27:16 51°14.969 2°54.245 -999 -999 -999 -999 -999
2008-04-17 07:27:21 51°14.979 2°54.231 -999 -999 -999 -999 -999
2008-04-17 07:27:26 51°14.989 2°54.218 -999 -999 -999 -999 -999
2008-04-17 07:27:31 51°15 2°54.205 -999 -999 -999 -999 -999
2008-04-17 07:27:36 51°15.011 2°54.192 -999 -999 -999 -999 -999
2008-04-17 07:27:41 51°15.022 2°54.18 -999 -999 -999 -999 -999
2008-04-17 07:27:46 51°15.033 2°54.167 -999 -999 -999 -999 -999
2008-04-17 07:27:51 51°15.044 2°54.155 -999 -999 -999 -999 -999
2008-04-17 07:27:56 51°15.056 2°54.146 -999 -999 -999 -999 -999
2008-04-17 07:28:00 51°15.065 2°54.138 -999 -999 -999 -999 -999
2008-04-17 07:28:06 51°15.08 2°54.127 -999 -999 -999 -999 -999
2008-04-17 07:28:11 51°15.092 2°54.119 -999 -999 -999 -999 -999
2008-04-17 07:28:16 51°15.104 2°54.11 -999 -999 -999 -999 -999
2008-04-17 07:28:21 51°15.116 2°54.102 -999 -999 -999 -999 -999
2008-04-17 07:28:26 51°15.128 2°54.095 -999 -999 -999 -999 -999
2008-04-17 07:28:31 51°15.14 2°54.087 -999 -999 -999 -999 -999
2008-04-17 07:28:36 51°15.153 2°54.079 -999 -999 -999 -999 -999
2008-04-17 07:28:41 51°15.165 2°54.071 -999 -999 -999 -999 -999
2008-04-17 07:28:46 51°15.177 2°54.063 -999 -999 -999 -999 -999
2008-04-17 07:28:51 51°15.189 2°54.055 -999 -999 -999 -999 -999
2008-04-17 07:28:56 51°15.201 2°54.046 -999 -999 -999 -999 -999
2008-04-17 07:29:01 51°15.213 2°54.036 -999 -999 -999 -999 -999
2008-04-17 07:29:06 51°15.224 2°54.026 -999 -999 -999 -999 -999
2008-04-17 07:29:11 51°15.236 2°54.016 -999 -999 -999 -999 -999
2008-04-17 07:29:16 51°15.248 2°54.006 -999 -999 -999 -999 -999
2008-04-17 07:29:21 51°15.259 2°53.996 -999 -999 -999 -999 -999
2008-04-17 07:29:26 51°15.271 2°53.986 -999 -999 -999 -999 -999
2008-04-17 07:29:31 51°15.283 2°53.975 -999 -999 -999 -999 -999
2008-04-17 07:29:36 51°15.294 2°53.965 -999 -999 -999 -999 -999
2008-04-17 07:29:41 51°15.306 2°53.954 -999 -999 -999 -999 -999
2008-04-17 07:29:46 51°15.318 2°53.944 -999 -999 -999 -999 -999
2008-04-17 07:29:51 51°15.33 2°53.933 -999 -999 -999 -999 -999
2008-04-17 07:29:55 51°15.339 2°53.925 -999 -999 -999 -999 -999
2008-04-17 07:30:00 51°15.351 2°53.914 -999 -999 -999 -999 -999
2008-04-17 07:30:06 51°15.365 2°53.901 -999 -999 -999 -999 -999
2008-04-17 07:30:11 51°15.376 2°53.89 -999 -999 -999 -999 -999
2008-04-17 07:30:16 51°15.388 2°53.879 -999 -999 -999 -999 -999
2008-04-17 07:30:20 51°15.397 2°53.871 -999 -999 -999 -999 -999
2008-04-17 07:30:26 51°15.411 2°53.858 -999 -999 -999 -999 -999
2008-04-17 07:30:31 51°15.423 2°53.847 -999 -999 -999 -999 -999
2008-04-17 07:30:36 51°15.434 2°53.837 -999 -999 -999 -999 -999
2008-04-17 07:30:41 51°15.446 2°53.826 -999 -999 -999 -999 -999
2008-04-17 07:30:46 51°15.458 2°53.815 -999 -999 -999 -999 -999
2008-04-17 07:30:51 51°15.469 2°53.804 -999 -999 -999 -999 -999
2008-04-17 07:30:56 51°15.481 2°53.794 -999 -999 -999 -999 -999
2008-04-17 07:31:01 51°15.492 2°53.783 -999 -999 -999 -999 -999
2008-04-17 07:31:06 51°15.504 2°53.772 -999 -999 -999 -999 -999
2008-04-17 07:31:11 51°15.516 2°53.761 -999 -999 -999 -999 -999
2008-04-17 07:31:16 51°15.527 2°53.75 -999 -999 -999 -999 -999
2008-04-17 07:31:21 51°15.539 2°53.739 -999 -999 -999 -999 -999
2008-04-17 07:31:26 51°15.551 2°53.729 -999 -999 -999 -999 -999
2008-04-17 07:31:31 51°15.562 2°53.718 -999 -999 -999 -999 -999
2008-04-17 07:31:36 51°15.574 2°53.708 -999 -999 -999 -999 -999
2008-04-17 07:31:41 51°15.585 2°53.697 -999 -999 -999 -999 -999
2008-04-17 07:31:46 51°15.597 2°53.686 -999 -999 -999 -999 -999
2008-04-17 07:31:51 51°15.608 2°53.675 -999 -999 -999 -999 -999
2008-04-17 07:31:55 51°15.618 2°53.667 -999 -999 -999 -999 -999
2008-04-17 07:32:01 51°15.632 2°53.654 -999 -999 -999 -999 -999
2008-04-17 07:32:06 51°15.643 2°53.644 -999 -999 -999 -999 -999
2008-04-17 07:32:11 51°15.655 2°53.634 -999 -999 -999 -999 -999
2008-04-17 07:32:16 51°15.666 2°53.624 -999 -999 -999 -999 -999
2008-04-17 07:32:20 51°15.675 2°53.615 -999 -999 -999 -999 -999
2008-04-17 07:32:26 51°15.689 2°53.603 -999 -999 -999 -999 -999
2008-04-17 07:32:31 51°15.701 2°53.593 -999 -999 -999 -999 -999
2008-04-17 07:32:36 51°15.713 2°53.583 -999 -999 -999 -999 -999
2008-04-17 07:32:41 51°15.724 2°53.573 -999 -999 -999 -999 -999
2008-04-17 07:32:46 51°15.736 2°53.562 -999 -999 -999 -999 -999
2008-04-17 07:32:51 51°15.747 2°53.552 -999 -999 -999 -999 -999
2008-04-17 07:32:56 51°15.759 2°53.541 -999 -999 -999 -999 -999
2008-04-17 07:33:01 51°15.77 2°53.531 -999 -999 -999 -999 -999
2008-04-17 07:33:06 51°15.782 2°53.521 -999 -999 -999 -999 -999
2008-04-17 07:33:11 51°15.793 2°53.51 -999 -999 -999 -999 -999
2008-04-17 07:33:16 51°15.805 2°53.5 -999 -999 -999 -999 -999
2008-04-17 07:33:21 51°15.816 2°53.489 -999 -999 -999 -999 -999
2008-04-17 07:33:26 51°15.828 2°53.478 -999 -999 -999 -999 -999
2008-04-17 07:33:31 51°15.839 2°53.468 -999 -999 -999 -999 -999
2008-04-17 07:33:36 51°15.851 2°53.457 -999 -999 -999 -999 -999
2008-04-17 07:33:41 51°15.863 2°53.446 -999 -999 -999 -999 -999
2008-04-17 07:33:46 51°15.875 2°53.435 -999 -999 -999 -999 -999
2008-04-17 07:33:51 51°15.887 2°53.424 -999 -999 -999 -999 -999
2008-04-17 07:33:56 51°15.9 2°53.412 -999 -999 -999 -999 -999
2008-04-17 07:34:01 51°15.913 2°53.401 -999 -999 -999 -999 -999
2008-04-17 07:34:06 51°15.927 2°53.39 -999 -999 -999 -999 -999
2008-04-17 07:34:11 51°15.941 2°53.38 -999 -999 -999 -999 -999
2008-04-17 07:34:15 51°15.953 2°53.371 -999 -999 -999 -999 -999
2008-04-17 07:34:21 51°15.971 2°53.359 -999 -999 -999 -999 -999
2008-04-17 07:34:26 51°15.986 2°53.349 -999 -999 -999 -999 -999
2008-04-17 07:34:31 51°16.001 2°53.339 -999 -999 -999 -999 -999
2008-04-17 07:34:36 51°16.016 2°53.329 -999 -999 -999 -999 -999
2008-04-17 07:34:40 51°16.029 2°53.322 -999 -999 -999 -999 -999
2008-04-17 07:34:46 51°16.047 2°53.31 -999 -999 -999 -999 -999
2008-04-17 07:34:51 51°16.062 2°53.3 -999 -999 -999 -999 -999
2008-04-17 07:34:56 51°16.077 2°53.29 -999 -999 -999 -999 -999
2008-04-17 07:35:01 51°16.093 2°53.28 -999 -999 -999 -999 -999
2008-04-17 07:35:06 51°16.108 2°53.27 -999 -999 -999 -999 -999
2008-04-17 07:35:11 51°16.123 2°53.259 -999 -999 -999 -999 -999
2008-04-17 07:35:16 51°16.138 2°53.249 -999 -999 -999 -999 -999
2008-04-17 07:35:21 51°16.153 2°53.237 -999 -999 -999 -999 -999
2008-04-17 07:35:26 51°16.168 2°53.226 -999 -999 -999 -999 -999
2008-04-17 07:35:31 51°16.183 2°53.215 -999 -999 -999 -999 -999
2008-04-17 07:35:36 51°16.198 2°53.203 -999 -999 -999 -999 -999
2008-04-17 07:35:41 51°16.213 2°53.192 -999 -999 -999 -999 -999
2008-04-17 07:35:46 51°16.228 2°53.18 -999 -999 -999 -999 -999
2008-04-17 07:35:51 51°16.243 2°53.168 -999 -999 -999 -999 -999
2008-04-17 07:35:56 51°16.257 2°53.156 -999 -999 -999 -999 -999
2008-04-17 07:36:01 51°16.272 2°53.143 -999 -999 -999 -999 -999
2008-04-17 07:36:06 51°16.287 2°53.13 -999 -999 -999 -999 -999
2008-04-17 07:36:11 51°16.301 2°53.118 -999 -999 -999 -999 -999
2008-04-17 07:36:15 51°16.313 2°53.108 -999 -999 -999 -999 -999
2008-04-17 07:36:21 51°16.33 2°53.093 -999 -999 -999 -999 -999
2008-04-17 07:36:26 51°16.344 2°53.08 -999 -999 -999 -999 -999
2008-04-17 07:36:31 51°16.359 2°53.067 -999 -999 -999 -999 -999
2008-04-17 07:36:36 51°16.373 2°53.054 -999 -999 -999 -999 -999
2008-04-17 07:36:41 51°16.387 2°53.041 -999 -999 -999 -999 -999
2008-04-17 07:36:46 51°16.401 2°53.028 -999 -999 -999 -999 -999
2008-04-17 07:36:51 51°16.416 2°53.015 -999 -999 -999 -999 -999
2008-04-17 07:36:56 51°16.43 2°53.001 -999 -999 -999 -999 -999
2008-04-17 07:37:01 51°16.444 2°52.986 -999 -999 -999 -999 -999
2008-04-17 07:37:06 51°16.458 2°52.973 -999 -999 -999 -999 -999
2008-04-17 07:37:11 51°16.471 2°52.958 -999 -999 -999 -999 -999
2008-04-17 07:37:16 51°16.485 2°52.944 -999 -999 -999 -999 -999
2008-04-17 07:37:21 51°16.497 2°52.929 -999 -999 -999 -999 -999
2008-04-17 07:37:26 51°16.509 2°52.915 -999 -999 -999 -999 -999
2008-04-17 07:37:31 51°16.519 2°52.902 -999 -999 -999 -999 -999
2008-04-17 07:37:36 51°16.529 2°52.889 -999 -999 -999 -999 -999
2008-04-17 07:37:40 51°16.535 2°52.878 -999 -999 -999 -999 -999
2008-04-17 07:37:46 51°16.545 2°52.864 -999 -999 -999 -999 -999
2008-04-17 07:37:51 51°16.552 2°52.851 -999 -999 -999 -999 -999
2008-04-17 07:37:56 51°16.559 2°52.839 -999 -999 -999 -999 -999
2008-04-17 07:38:01 51°16.565 2°52.827 -999 -999 -999 -999 -999
2008-04-17 07:38:06 51°16.571 2°52.816 -999 -999 -999 -999 -999
2008-04-17 07:38:11 51°16.576 2°52.804 -999 -999 -999 -999 -999
2008-04-17 07:38:16 51°16.582 2°52.793 -999 -999 -999 -999 -999
2008-04-17 07:38:21 51°16.588 2°52.78 -999 -999 -999 -999 -999
2008-04-17 07:38:26 51°16.594 2°52.768 -999 -999 -999 -999 -999
2008-04-17 07:38:31 51°16.6 2°52.756 -999 -999 -999 -999 -999
2008-04-17 07:38:36 51°16.607 2°52.744 -999 -999 -999 -999 -999
2008-04-17 07:38:41 51°16.613 2°52.731 -999 -999 -999 -999 -999
2008-04-17 07:38:46 51°16.619 2°52.719 -999 -999 -999 -999 -999
2008-04-17 07:38:51 51°16.626 2°52.707 -999 -999 -999 -999 -999
2008-04-17 07:38:56 51°16.632 2°52.695 -999 -999 -999 -999 -999
2008-04-17 07:39:01 51°16.639 2°52.682 -999 -999 -999 -999 -999
2008-04-17 07:39:06 51°16.646 2°52.67 -999 -999 -999 -999 -999
2008-04-17 07:39:11 51°16.653 2°52.657 -999 -999 -999 -999 -999
2008-04-17 07:39:16 51°16.659 2°52.645 -999 -999 -999 -999 -999
2008-04-17 07:39:21 51°16.666 2°52.632 -999 -999 -999 -999 -999
2008-04-17 07:39:26 51°16.673 2°52.619 -999 -999 -999 -999 -999
2008-04-17 07:39:31 51°16.68 2°52.606 -999 -999 -999 -999 -999
2008-04-17 07:39:36 51°16.686 2°52.593 -999 -999 -999 -999 -999
2008-04-17 07:39:40 51°16.692 2°52.583 -999 -999 -999 -999 -999
2008-04-17 07:39:46 51°16.7 2°52.567 -999 -999 -999 -999 -999
2008-04-17 07:39:51 51°16.706 2°52.554 -999 -999 -999 -999 -999
2008-04-17 07:39:56 51°16.713 2°52.542 -999 -999 -999 -999 -999
2008-04-17 07:40:01 51°16.72 2°52.529 -999 -999 -999 -999 -999
2008-04-17 07:40:06 51°16.727 2°52.516 -999 -999 -999 -999 -999
2008-04-17 07:40:11 51°16.734 2°52.504 -999 -999 -999 -999 -999
2008-04-17 07:40:16 51°16.741 2°52.491 -999 -999 -999 -999 -999
2008-04-17 07:40:21 51°16.748 2°52.478 -999 -999 -999 -999 -999
2008-04-17 07:40:26 51°16.755 2°52.465 -999 -999 -999 -999 -999
2008-04-17 07:40:31 51°16.762 2°52.453 -999 -999 -999 -999 -999
2008-04-17 07:40:36 51°16.769 2°52.44 -999 -999 -999 -999 -999
2008-04-17 07:40:41 51°16.776 2°52.427 -999 -999 -999 -999 -999
2008-04-17 07:40:46 51°16.782 2°52.414 -999 -999 -999 -999 -999
2008-04-17 07:40:51 51°16.789 2°52.401 -999 -999 -999 -999 -999
2008-04-17 07:40:56 51°16.796 2°52.389 -999 -999 -999 -999 -999
2008-04-17 07:41:01 51°16.803 2°52.376 -999 -999 -999 -999 -999
2008-04-17 07:41:06 51°16.809 2°52.363 -999 -999 -999 -999 -999
2008-04-17 07:41:11 51°16.816 2°52.35 -999 -999 -999 -999 -999
2008-04-17 07:41:16 51°16.823 2°52.338 -999 -999 -999 -999 -999
2008-04-17 07:41:21 51°16.829 2°52.326 -999 -999 -999 -999 -999
2008-04-17 07:41:26 51°16.835 2°52.315 -999 -999 -999 -999 -999
2008-04-17 07:41:31 51°16.841 2°52.304 -999 -999 -999 -999 -999
2008-04-17 07:41:36 51°16.847 2°52.293 -999 -999 -999 -999 -999
2008-04-17 07:41:40 51°16.851 2°52.285 -999 -999 -999 -999 -999
2008-04-17 07:41:46 51°16.858 2°52.273 -999 -999 -999 -999 -999
2008-04-17 07:41:51 51°16.863 2°52.263 -999 -999 -999 -999 -999
2008-04-17 07:41:56 51°16.869 2°52.254 -999 -999 -999 -999 -999
2008-04-17 07:42:01 51°16.874 2°52.244 -999 -999 -999 -999 -999
2008-04-17 07:42:06 51°16.878 2°52.235 -999 -999 -999 -999 -999
2008-04-17 07:42:11 51°16.884 2°52.226 -999 -999 -999 -999 -999
2008-04-17 07:42:16 51°16.888 2°52.217 -999 -999 -999 -999 -999
2008-04-17 07:42:21 51°16.893 2°52.208 -999 -999 -999 -999 -999
2008-04-17 07:42:26 51°16.897 2°52.199 -999 -999 -999 -999 -999
2008-04-17 07:42:31 51°16.902 2°52.19 -999 -999 -999 -999 -999
2008-04-17 07:42:36 51°16.907 2°52.18 -999 -999 -999 -999 -999
2008-04-17 07:42:41 51°16.911 2°52.17 -999 -999 -999 -999 -999
2008-04-17 07:42:46 51°16.916 2°52.16 -999 -999 -999 -999 -999
2008-04-17 07:42:51 51°16.921 2°52.15 -999 -999 -999 -999 -999
2008-04-17 07:42:56 51°16.926 2°52.14 -999 -999 -999 -999 -999
2008-04-17 07:43:01 51°16.931 2°52.13 -999 -999 -999 -999 -999
2008-04-17 07:43:06 51°16.935 2°52.119 -999 -999 -999 -999 -999
2008-04-17 07:43:11 51°16.941 2°52.11 -999 -999 -999 -999 -999
2008-04-17 07:43:16 51°16.946 2°52.099 -999 -999 -999 -999 -999
2008-04-17 07:43:21 51°16.951 2°52.089 -999 -999 -999 -999 -999
2008-04-17 07:43:26 51°16.957 2°52.079 -999 -999 -999 -999 -999
2008-04-17 07:43:31 51°16.962 2°52.069 -999 -999 -999 -999 -999
2008-04-17 07:43:36 51°16.967 2°52.059 -999 -999 -999 -999 -999
2008-04-17 07:43:41 51°16.973 2°52.049 -999 -999 -999 -999 -999
2008-04-17 07:43:46 51°16.978 2°52.039 -999 -999 -999 -999 -999
2008-04-17 07:43:51 51°16.984 2°52.03 -999 -999 -999 -999 -999
2008-04-17 07:43:56 51°16.99 2°52.021 -999 -999 -999 -999 -999
2008-04-17 07:44:00 51°16.995 2°52.015 -999 -999 -999 -999 -999
2008-04-17 07:44:06 51°17.003 2°52.006 -999 -999 -999 -999 -999
2008-04-17 07:44:11 51°17.009 2°52 -999 -999 -999 -999 -999
2008-04-17 07:44:16 51°17.015 2°51.996 -999 -999 -999 -999 -999
2008-04-17 07:44:21 51°17.022 2°51.993 -999 -999 -999 -999 -999
2008-04-17 07:44:26 51°17.029 2°51.99 -999 -999 -999 -999 -999
2008-04-17 07:44:31 51°17.035 2°51.988 -999 -999 -999 -999 -999
2008-04-17 07:44:36 51°17.042 2°51.986 -999 -999 -999 -999 -999
2008-04-17 07:44:41 51°17.049 2°51.985 -999 -999 -999 -999 -999
2008-04-17 07:44:46 51°17.056 2°51.983 -999 -999 -999 -999 -999
2008-04-17 07:44:51 51°17.063 2°51.981 -999 -999 -999 -999 -999
2008-04-17 07:44:56 51°17.07 2°51.979 -999 -999 -999 -999 -999
2008-04-17 07:45:01 51°17.077 2°51.977 -999 -999 -999 -999 -999
2008-04-17 07:45:06 51°17.084 2°51.975 -999 -999 -999 -999 -999
2008-04-17 07:45:11 51°17.091 2°51.973 -999 -999 -999 -999 -999
2008-04-17 07:45:16 51°17.099 2°51.971 -999 -999 -999 -999 -999
2008-04-17 07:45:21 51°17.106 2°51.969 -999 -999 -999 -999 -999
2008-04-17 07:45:26 51°17.113 2°51.968 -999 -999 -999 -999 -999
2008-04-17 07:45:31 51°17.12 2°51.966 -999 -999 -999 -999 -999
2008-04-17 07:45:36 51°17.127 2°51.964 -999 -999 -999 -999 -999
2008-04-17 07:45:41 51°17.133 2°51.962 -999 -999 -999 -999 -999
2008-04-17 07:45:46 51°17.139 2°51.96 -999 -999 -999 -999 -999
2008-04-17 07:45:51 51°17.145 2°51.958 -999 -999 -999 -999 -999
2008-04-17 07:45:56 51°17.151 2°51.957 -999 -999 -999 -999 -999
2008-04-17 07:46:00 51°17.155 2°51.957 -999 -999 -999 -999 -999
2008-04-17 07:46:06 51°17.161 2°51.957 -999 -999 -999 -999 -999
2008-04-17 07:46:11 51°17.165 2°51.958 -999 -999 -999 -999 -999
2008-04-17 07:46:16 51°17.169 2°51.959 -999 -999 -999 -999 -999
2008-04-17 07:46:21 51°17.174 2°51.96 -999 -999 -999 -999 -999
2008-04-17 07:46:26 51°17.177 2°51.962 -999 -999 -999 -999 -999
2008-04-17 07:46:31 51°17.181 2°51.963 -999 -999 -999 -999 -999
2008-04-17 07:46:36 51°17.185 2°51.965 -999 -999 -999 -999 -999
2008-04-17 07:46:41 51°17.188 2°51.968 -999 -999 -999 -999 -999
2008-04-17 07:46:46 51°17.192 2°51.969 -999 -999 -999 -999 -999
2008-04-17 07:46:51 51°17.195 2°51.972 -999 -999 -999 -999 -999
2008-04-17 07:46:56 51°17.199 2°51.974 -999 -999 -999 -999 -999
2008-04-17 07:47:01 51°17.202 2°51.976 -999 -999 -999 -999 -999
2008-04-17 07:47:06 51°17.206 2°51.979 -999 -999 -999 -999 -999
2008-04-17 07:47:11 51°17.21 2°51.981 -999 -999 -999 -999 -999
2008-04-17 07:47:16 51°17.213 2°51.983 -999 -999 -999 -999 -999
2008-04-17 07:47:21 51°17.217 2°51.985 -999 -999 -999 -999 -999
2008-04-17 07:47:26 51°17.22 2°51.987 -999 -999 -999 -999 -999
2008-04-17 07:47:31 51°17.223 2°51.99 -999 -999 -999 -999 -999
2008-04-17 07:47:36 51°17.226 2°51.992 -999 -999 -999 -999 -999
2008-04-17 07:47:41 51°17.229 2°51.995 -999 -999 -999 -999 -999
2008-04-17 07:47:46 51°17.231 2°51.998 -999 -999 -999 -999 -999
2008-04-17 07:47:51 51°17.233 2°52.002 -999 -999 -999 -999 -999
2008-04-17 07:47:55 51°17.235 2°52.004 -999 -999 -999 -999 -999
2008-04-17 07:48:01 51°17.238 2°52.009 -999 -999 -999 -999 -999
2008-04-17 07:48:06 51°17.239 2°52.013 -999 -999 -999 -999 -999
2008-04-17 07:48:11 51°17.241 2°52.017 -999 -999 -999 -999 -999
2008-04-17 07:48:16 51°17.243 2°52.02 -999 -999 -999 -999 -999
2008-04-17 07:48:20 51°17.245 2°52.024 -999 -999 -999 -999 -999
2008-04-17 07:48:26 51°17.247 2°52.028 -999 -999 -999 -999 -999
2008-04-17 07:48:31 51°17.249 2°52.032 -999 -999 -999 -999 -999
2008-04-17 07:48:36 51°17.252 2°52.035 -999 -999 -999 -999 -999
2008-04-17 07:48:41 51°17.255 2°52.039 -999 -999 -999 -999 -999
2008-04-17 07:48:46 51°17.258 2°52.043 -999 -999 -999 -999 -999
2008-04-17 07:48:51 51°17.261 2°52.046 -999 -999 -999 -999 -999
2008-04-17 07:48:56 51°17.265 2°52.05 -999 -999 -999 -999 -999
2008-04-17 07:49:01 51°17.269 2°52.053 -999 -999 -999 -999 -999
2008-04-17 07:49:06 51°17.273 2°52.056 -999 -999 -999 -999 -999
2008-04-17 07:49:11 51°17.278 2°52.059 -999 -999 -999 -999 -999
2008-04-17 07:49:16 51°17.282 2°52.062 -999 -999 -999 -999 -999
2008-04-17 07:49:21 51°17.287 2°52.066 -999 -999 -999 -999 -999
2008-04-17 07:49:26 51°17.291 2°52.07 -999 -999 -999 -999 -999
2008-04-17 07:49:31 51°17.294 2°52.075 -999 -999 -999 -999 -999
2008-04-17 07:49:36 51°17.298 2°52.08 -999 -999 -999 -999 -999
2008-04-17 07:49:41 51°17.301 2°52.085 -999 -999 -999 -999 -999
2008-04-17 07:49:46 51°17.303 2°52.09 -999 -999 -999 -999 -999
2008-04-17 07:49:51 51°17.306 2°52.095 -999 -999 -999 -999 -999
2008-04-17 07:49:56 51°17.308 2°52.1 -999 -999 -999 -999 -999
2008-04-17 07:50:01 51°17.31 2°52.104 -999 -999 -999 -999 -999
2008-04-17 07:50:06 51°17.312 2°52.109 -999 -999 -999 -999 -999
2008-04-17 07:50:11 51°17.313 2°52.113 -999 -999 -999 -999 -999
2008-04-17 07:50:16 51°17.315 2°52.118 -999 -999 -999 -999 -999
2008-04-17 07:50:21 51°17.316 2°52.122 -999 -999 -999 -999 -999
2008-04-17 07:50:26 51°17.318 2°52.126 -999 -999 -999 -999 -999
2008-04-17 07:50:31 51°17.32 2°52.129 -999 -999 -999 -999 -999
2008-04-17 07:50:36 51°17.321 2°52.133 -999 -999 -999 -999 -999
2008-04-17 07:50:41 51°17.322 2°52.135 -999 -999 -999 -999 -999
2008-04-17 07:50:46 51°17.323 2°52.137 -999 -999 -999 -999 -999
2008-04-17 07:50:51 51°17.323 2°52.138 -999 -999 -999 -999 -999
2008-04-17 07:50:56 51°17.323 2°52.139 -999 -999 -999 -999 -999
2008-04-17 07:51:01 51°17.323 2°52.14 -999 -999 -999 -999 -999
2008-04-17 07:51:06 51°17.323 2°52.14 -999 -999 -999 -999 -999
2008-04-17 07:51:11 51°17.323 2°52.14 -999 -999 -999 -999 -999
2008-04-17 07:51:16 51°17.323 2°52.141 -999 -999 -999 -999 -999
2008-04-17 07:51:21 51°17.323 2°52.141 -999 -999 -999 -999 -999
2008-04-17 07:51:26 51°17.323 2°52.141 -999 -999 -999 -999 -999
2008-04-17 07:51:31 51°17.322 2°52.141 -999 -999 -999 -999 -999
2008-04-17 07:51:36 51°17.322 2°52.141 -999 -999 -999 -999 -999
2008-04-17 07:51:41 51°17.321 2°52.14 -999 -999 -999 -999 -999
2008-04-17 07:51:46 51°17.321 2°52.14 -999 -999 -999 -999 -999
2008-04-17 07:51:51 51°17.32 2°52.139 -999 -999 -999 -999 -999
2008-04-17 07:51:56 51°17.32 2°52.139 -999 -999 -999 -999 -999
2008-04-17 07:52:01 51°17.319 2°52.138 -999 -999 -999 -999 -999
2008-04-17 07:52:06 51°17.319 2°52.137 -999 -999 -999 -999 -999
2008-04-17 07:52:11 51°17.318 2°52.137 -999 -999 -999 -999 -999
2008-04-17 07:52:15 51°17.318 2°52.136 -999 -999 -999 -999 -999
2008-04-17 07:52:21 51°17.317 2°52.134 -999 -999 -999 -999 -999
2008-04-17 07:52:26 51°17.316 2°52.134 -999 -999 -999 -999 -999
2008-04-17 07:52:31 51°17.316 2°52.132 -999 -999 -999 -999 -999
2008-04-17 07:52:36 51°17.315 2°52.131 -999 -999 -999 -999 -999
2008-04-17 07:52:41 51°17.315 2°52.13 -999 -999 -999 -999 -999
2008-04-17 07:52:46 51°17.314 2°52.128 -999 -999 -999 -999 -999
2008-04-17 07:52:51 51°17.313 2°52.127 -999 -999 -999 -999 -999
2008-04-17 07:52:56 51°17.312 2°52.125 -999 -999 -999 -999 -999
2008-04-17 07:53:01 51°17.312 2°52.123 -999 -999 -999 -999 -999
2008-04-17 07:53:06 51°17.311 2°52.121 -999 -999 -999 -999 -999
2008-04-17 07:53:11 51°17.31 2°52.119 -999 -999 -999 -999 -999
2008-04-17 07:53:16 51°17.309 2°52.118 -999 -999 -999 -999 -999
2008-04-17 07:53:21 51°17.308 2°52.116 -999 -999 -999 -999 -999
2008-04-17 07:53:26 51°17.307 2°52.114 -999 -999 -999 -999 -999
2008-04-17 07:53:31 51°17.307 2°52.112 -999 -999 -999 -999 -999
2008-04-17 07:53:36 51°17.306 2°52.109 -999 -999 -999 -999 -999
2008-04-17 07:53:41 51°17.305 2°52.107 -999 -999 -999 -999 -999
2008-04-17 07:53:46 51°17.304 2°52.105 -999 -999 -999 -999 -999
2008-04-17 07:53:51 51°17.303 2°52.104 -999 -999 -999 -999 -999
2008-04-17 07:53:56 51°17.303 2°52.101 -999 -999 -999 -999 -999
2008-04-17 07:54:01 51°17.302 2°52.1 -999 -999 -999 -999 -999
2008-04-17 07:54:06 51°17.302 2°52.098 -999 -999 -999 -999 -999
2008-04-17 07:54:11 51°17.302 2°52.097 -999 -999 -999 -999 -999
2008-04-17 07:54:16 51°17.303 2°52.096 -999 -999 -999 -999 -999
2008-04-17 07:54:21 51°17.304 2°52.097 -999 -999 -999 -999 -999
2008-04-17 07:54:26 51°17.306 2°52.098 -999 -999 -999 -999 -999
2008-04-17 07:54:31 51°17.308 2°52.099 -999 -999 -999 -999 -999
2008-04-17 07:54:36 51°17.31 2°52.101 -999 -999 -999 -999 -999
2008-04-17 07:54:41 51°17.311 2°52.103 -999 -999 -999 -999 -999
2008-04-17 07:54:46 51°17.312 2°52.105 -999 -999 -999 -999 -999
2008-04-17 07:54:51 51°17.313 2°52.107 -999 -999 -999 -999 -999
2008-04-17 07:54:56 51°17.314 2°52.109 -999 -999 -999 -999 -999
2008-04-17 07:55:01 51°17.315 2°52.112 -999 -999 -999 -999 -999
2008-04-17 07:55:06 51°17.316 2°52.115 -999 -999 -999 -999 -999
2008-04-17 07:55:11 51°17.316 2°52.118 -999 -999 -999 -999 -999
2008-04-17 07:55:16 51°17.317 2°52.121 -999 -999 -999 -999 -999
2008-04-17 07:55:21 51°17.317 2°52.124 -999 -999 -999 -999 -999
2008-04-17 07:55:26 51°17.317 2°52.127 -999 -999 -999 -999 -999
2008-04-17 07:55:31 51°17.318 2°52.131 -999 -999 -999 -999 -999
2008-04-17 07:55:36 51°17.318 2°52.134 -999 -999 -999 -999 -999
2008-04-17 07:55:40 51°17.318 2°52.136 -999 -999 -999 -999 -999
2008-04-17 07:55:46 51°17.319 2°52.139 -999 -999 -999 -999 -999
2008-04-17 07:55:51 51°17.319 2°52.142 -999 -999 -999 -999 -999
2008-04-17 07:55:56 51°17.319 2°52.143 -999 -999 -999 -999 -999
2008-04-17 07:56:01 51°17.319 2°52.145 -999 -999 -999 -999 -999
2008-04-17 07:56:06 51°17.319 2°52.146 -999 -999 -999 -999 -999
2008-04-17 07:56:11 51°17.32 2°52.146 -999 -999 -999 -999 -999
2008-04-17 07:56:16 51°17.32 2°52.147 -999 -999 -999 -999 -999
2008-04-17 07:56:21 51°17.32 2°52.148 -999 -999 -999 -999 -999
2008-04-17 07:56:26 51°17.32 2°52.148 -999 -999 -999 -999 -999
2008-04-17 07:56:31 51°17.32 2°52.149 -999 -999 -999 -999 -999
2008-04-17 07:56:36 51°17.32 2°52.149 -999 -999 -999 -999 -999
2008-04-17 07:56:41 51°17.32 2°52.149 -999 -999 -999 -999 -999
2008-04-17 07:56:46 51°17.32 2°52.149 -999 -999 -999 -999 -999
2008-04-17 07:56:51 51°17.32 2°52.149 -999 -999 -999 -999 -999
2008-04-17 07:56:56 51°17.32 2°52.149 -999 -999 -999 -999 -999
2008-04-17 07:57:01 51°17.32 2°52.149 -999 -999 -999 -999 -999
2008-04-17 07:57:06 51°17.32 2°52.149 -999 -999 -999 -999 -999
2008-04-17 07:57:11 51°17.32 2°52.148 -999 -999 -999 -999 -999
2008-04-17 07:57:16 51°17.32 2°52.148 -999 -999 -999 -999 -999
2008-04-17 07:57:21 51°17.32 2°52.148 -999 -999 -999 -999 -999
2008-04-17 07:57:26 51°17.32 2°52.147 -999 -999 -999 -999 -999
2008-04-17 07:57:31 51°17.32 2°52.146 -999 -999 -999 -999 -999
2008-04-17 07:57:36 51°17.32 2°52.146 -999 -999 -999 -999 -999
2008-04-17 07:57:40 51°17.32 2°52.145 -999 -999 -999 -999 -999
2008-04-17 07:57:46 51°17.32 2°52.144 -999 -999 -999 -999 -999
2008-04-17 07:57:51 51°17.32 2°52.143 -999 -999 -999 -999 -999
2008-04-17 07:57:56 51°17.32 2°52.143 -999 -999 -999 -999 -999
2008-04-17 07:58:01 51°17.319 2°52.142 -999 -999 -999 -999 -999
2008-04-17 07:58:06 51°17.319 2°52.141 -999 -999 -999 -999 -999
2008-04-17 07:58:11 51°17.319 2°52.14 -999 -999 -999 -999 -999
2008-04-17 07:58:16 51°17.319 2°52.139 -999 -999 -999 -999 -999
2008-04-17 07:58:21 51°17.319 2°52.138 -999 -999 -999 -999 -999
2008-04-17 07:58:26 51°17.319 2°52.137 -999 -999 -999 -999 -999
2008-04-17 07:58:31 51°17.319 2°52.136 -999 -999 -999 -999 -999
2008-04-17 07:58:36 51°17.319 2°52.135 -999 -999 -999 -999 -999
2008-04-17 07:58:41 51°17.318 2°52.134 -999 -999 -999 -999 -999
2008-04-17 07:58:46 51°17.318 2°52.133 -999 -999 -999 -999 -999
2008-04-17 07:58:51 51°17.318 2°52.132 -999 -999 -999 -999 -999
2008-04-17 07:58:56 51°17.318 2°52.131 -999 -999 -999 -999 -999
2008-04-17 07:59:01 51°17.318 2°52.13 -999 -999 -999 -999 -999
2008-04-17 07:59:06 51°17.317 2°52.129 -999 -999 -999 -999 -999
2008-04-17 07:59:11 51°17.317 2°52.128 -999 -999 -999 -999 -999
2008-04-17 07:59:16 51°17.317 2°52.127 -999 -999 -999 -999 -999
2008-04-17 07:59:21 51°17.316 2°52.126 -999 -999 -999 -999 -999
2008-04-17 07:59:26 51°17.316 2°52.124 -999 -999 -999 -999 -999
2008-04-17 07:59:31 51°17.316 2°52.123 -999 -999 -999 -999 -999
2008-04-17 07:59:36 51°17.315 2°52.122 -999 -999 -999 -999 -999
2008-04-17 07:59:41 51°17.315 2°52.121 -999 -999 -999 -999 -999
2008-04-17 07:59:46 51°17.315 2°52.12 -999 -999 -999 -999 -999
2008-04-17 07:59:51 51°17.315 2°52.119 -999 -999 -999 -999 -999
2008-04-17 07:59:56 51°17.315 2°52.118 -999 -999 -999 -999 -999
2008-04-17 08:00:01 51°17.314 2°52.117 -999 -999 -999 -999 -999
2008-04-17 08:00:06 51°17.314 2°52.117 -999 -999 -999 -999 -999
2008-04-17 08:00:11 51°17.314 2°52.116 -999 -999 -999 -999 -999
2008-04-17 08:00:16 51°17.314 2°52.115 -999 -999 -999 -999 -999
2008-04-17 08:00:21 51°17.314 2°52.115 -999 -999 -999 -999 -999
2008-04-17 08:00:26 51°17.315 2°52.115 -999 -999 -999 -999 -999
2008-04-17 08:00:31 51°17.315 2°52.115 -999 -999 -999 -999 -999
2008-04-17 08:00:36 51°17.315 2°52.115 -999 -999 -999 -999 -999
2008-04-17 08:00:41 51°17.315 2°52.115 -999 -999 -999 -999 -999
2008-04-17 08:00:46 51°17.315 2°52.115 -999 -999 -999 -999 -999
2008-04-17 08:00:51 51°17.316 2°52.115 -999 -999 -999 -999 -999
2008-04-17 08:00:56 51°17.316 2°52.115 -999 -999 -999 -999 -999
2008-04-17 08:01:01 51°17.316 2°52.116 -999 -999 -999 -999 -999
2008-04-17 08:01:06 51°17.316 2°52.116 -999 -999 -999 -999 -999
2008-04-17 08:01:11 51°17.316 2°52.116 -999 -999 -999 -999 -999
2008-04-17 08:01:16 51°17.316 2°52.116 -999 -999 -999 -999 -999
2008-04-17 08:01:21 51°17.316 2°52.116 -999 -999 -999 -999 -999
2008-04-17 08:01:26 51°17.316 2°52.117 -999 -999 -999 -999 -999
2008-04-17 08:01:31 51°17.316 2°52.117 -999 -999 -999 -999 -999
2008-04-17 08:01:36 51°17.316 2°52.117 -999 -999 -999 -999 -999
2008-04-17 08:01:41 51°17.316 2°52.117 -999 -999 -999 -999 -999
2008-04-17 08:01:46 51°17.316 2°52.117 -999 -999 -999 -999 -999
2008-04-17 08:01:51 51°17.315 2°52.117 -999 -999 -999 -999 -999
2008-04-17 08:01:56 51°17.316 2°52.117 -999 -999 -999 -999 -999
2008-04-17 08:02:01 51°17.315 2°52.117 -999 -999 -999 -999 -999
2008-04-17 08:02:06 51°17.315 2°52.118 -999 -999 -999 -999 -999
2008-04-17 08:02:11 51°17.315 2°52.118 -999 -999 -999 -999 -999
2008-04-17 08:02:16 51°17.315 2°52.118 -999 -999 -999 -999 -999
2008-04-17 08:02:21 51°17.315 2°52.117 -999 -999 -999 -999 -999
2008-04-17 08:02:26 51°17.315 2°52.118 -999 -999 -999 -999 -999
2008-04-17 08:02:31 51°17.314 2°52.118 -999 -999 -999 -999 -999
2008-04-17 08:02:36 51°17.314 2°52.118 -999 -999 -999 -999 -999
2008-04-17 08:02:41 51°17.314 2°52.118 -999 -999 -999 -999 -999
2008-04-17 08:02:46 51°17.314 2°52.118 -999 -999 -999 -999 -999
2008-04-17 08:02:51 51°17.314 2°52.118 -999 -999 -999 -999 -999
2008-04-17 08:02:56 51°17.314 2°52.118 -999 -999 -999 -999 -999
2008-04-17 08:03:01 51°17.314 2°52.117 -999 -999 -999 -999 -999
2008-04-17 08:03:06 51°17.313 2°52.117 -999 -999 -999 -999 -999
2008-04-17 08:03:11 51°17.313 2°52.117 -999 -999 -999 -999 -999
2008-04-17 08:03:16 51°17.313 2°52.117 -999 -999 -999 -999 -999
2008-04-17 08:03:21 51°17.313 2°52.116 -999 -999 -999 -999 -999
2008-04-17 08:03:26 51°17.313 2°52.116 -999 -999 -999 -999 -999
2008-04-17 08:03:31 51°17.313 2°52.116 -999 -999 -999 -999 -999
2008-04-17 08:03:36 51°17.312 2°52.116 -999 -999 -999 -999 -999
2008-04-17 08:03:41 51°17.312 2°52.115 -999 -999 -999 -999 -999
2008-04-17 08:03:46 51°17.312 2°52.115 -999 -999 -999 -999 -999
2008-04-17 08:03:51 51°17.312 2°52.115 -999 -999 -999 -999 -999
2008-04-17 08:03:56 51°17.312 2°52.115 -999 -999 -999 -999 -999
2008-04-17 08:04:01 51°17.312 2°52.115 -999 -999 -999 -999 -999
2008-04-17 08:04:06 51°17.312 2°52.115 -999 -999 -999 -999 -999
2008-04-17 08:04:11 51°17.312 2°52.115 -999 -999 -999 -999 -999
2008-04-17 08:04:16 51°17.312 2°52.115 -999 -999 -999 -999 -999
2008-04-17 08:04:21 51°17.312 2°52.116 -999 -999 -999 -999 -999
2008-04-17 08:04:26 51°17.312 2°52.116 -999 -999 -999 -999 -999
2008-04-17 08:04:31 51°17.312 2°52.117 -999 -999 -999 -999 -999
2008-04-17 08:04:36 51°17.312 2°52.117 -999 -999 -999 -999 -999
2008-04-17 08:04:41 51°17.312 2°52.118 -999 -999 -999 -999 -999
2008-04-17 08:04:46 51°17.312 2°52.119 -999 -999 -999 -999 -999
2008-04-17 08:04:51 51°17.312 2°52.12 -999 -999 -999 -999 -999
2008-04-17 08:04:56 51°17.311 2°52.121 -999 -999 -999 -999 -999
2008-04-17 08:05:01 51°17.311 2°52.122 -999 -999 -999 -999 -999
2008-04-17 08:05:06 51°17.311 2°52.124 -999 -999 -999 -999 -999
2008-04-17 08:05:11 51°17.311 2°52.125 -999 -999 -999 -999 -999
2008-04-17 08:05:16 51°17.311 2°52.127 -999 -999 -999 -999 -999
2008-04-17 08:05:21 51°17.311 2°52.128 -999 -999 -999 -999 -999
2008-04-17 08:05:26 51°17.31 2°52.13 -999 -999 -999 -999 -999
2008-04-17 08:05:31 51°17.31 2°52.131 -999 -999 -999 -999 -999
2008-04-17 08:05:36 51°17.31 2°52.133 -999 -999 -999 -999 -999
2008-04-17 08:05:41 51°17.31 2°52.135 -999 -999 -999 -999 -999
2008-04-17 08:05:46 51°17.31 2°52.137 -999 -999 -999 -999 -999
2008-04-17 08:05:51 51°17.31 2°52.139 -999 -999 -999 -999 -999
2008-04-17 08:05:55 51°17.31 2°52.14 -999 -999 -999 -999 -999
2008-04-17 08:06:01 51°17.31 2°52.143 -999 -999 -999 -999 -999
2008-04-17 08:06:06 51°17.31 2°52.145 -999 -999 -999 -999 -999
2008-04-17 08:06:11 51°17.31 2°52.146 -999 -999 -999 -999 -999
2008-04-17 08:06:16 51°17.309 2°52.149 -999 -999 -999 -999 -999
2008-04-17 08:06:21 51°17.31 2°52.15 -999 -999 -999 -999 -999
2008-04-17 08:06:26 51°17.31 2°52.153 -999 -999 -999 -999 -999
2008-04-17 08:06:31 51°17.31 2°52.155 -999 -999 -999 -999 -999
2008-04-17 08:06:36 51°17.31 2°52.156 -999 -999 -999 -999 -999
2008-04-17 08:06:41 51°17.31 2°52.158 -999 -999 -999 -999 -999
2008-04-17 08:06:46 51°17.311 2°52.16 -999 -999 -999 -999 -999
2008-04-17 08:06:51 51°17.311 2°52.161 -999 -999 -999 -999 -999
2008-04-17 08:06:56 51°17.312 2°52.163 -999 -999 -999 -999 -999
2008-04-17 08:07:01 51°17.312 2°52.164 -999 -999 -999 -999 -999
2008-04-17 08:07:06 51°17.313 2°52.166 -999 -999 -999 -999 -999
2008-04-17 08:07:11 51°17.314 2°52.167 -999 -999 -999 -999 -999
2008-04-17 08:07:16 51°17.314 2°52.168 -999 -999 -999 -999 -999
2008-04-17 08:07:21 51°17.315 2°52.168 -999 -999 -999 -999 -999
2008-04-17 08:07:26 51°17.315 2°52.169 -999 -999 -999 -999 -999
2008-04-17 08:07:31 51°17.316 2°52.169 -999 -999 -999 -999 -999
2008-04-17 08:07:36 51°17.317 2°52.17 -999 -999 -999 -999 -999
2008-04-17 08:07:41 51°17.317 2°52.17 -999 -999 -999 -999 -999
2008-04-17 08:07:46 51°17.318 2°52.17 -999 -999 -999 -999 -999
2008-04-17 08:07:51 51°17.319 2°52.17 -999 -999 -999 -999 -999
2008-04-17 08:07:55 51°17.319 2°52.17 -999 -999 -999 -999 -999
2008-04-17 08:08:01 51°17.32 2°52.17 -999 -999 -999 -999 -999
2008-04-17 08:08:06 51°17.32 2°52.171 -999 -999 -999 -999 -999
2008-04-17 08:08:11 51°17.321 2°52.17 -999 -999 -999 -999 -999
2008-04-17 08:08:16 51°17.321 2°52.17 -999 -999 -999 -999 -999
2008-04-17 08:08:21 51°17.321 2°52.17 -999 -999 -999 -999 -999
2008-04-17 08:08:26 51°17.322 2°52.17 -999 -999 -999 -999 -999
2008-04-17 08:08:31 51°17.322 2°52.17 -999 -999 -999 -999 -999
2008-04-17 08:08:36 51°17.322 2°52.17 -999 -999 -999 -999 -999
2008-04-17 08:08:41 51°17.322 2°52.169 -999 -999 -999 -999 -999
2008-04-17 08:08:46 51°17.323 2°52.169 -999 -999 -999 -999 -999
2008-04-17 08:08:51 51°17.323 2°52.169 -999 -999 -999 -999 -999
2008-04-17 08:08:56 51°17.323 2°52.169 -999 -999 -999 -999 -999
2008-04-17 08:09:01 51°17.323 2°52.168 -999 -999 -999 -999 -999
2008-04-17 08:09:06 51°17.323 2°52.168 -999 -999 -999 -999 -999
2008-04-17 08:09:11 51°17.324 2°52.168 -999 -999 -999 -999 -999
2008-04-17 08:09:16 51°17.324 2°52.167 -999 -999 -999 -999 -999
2008-04-17 08:09:21 51°17.324 2°52.166 -999 -999 -999 -999 -999
2008-04-17 08:09:26 51°17.324 2°52.166 -999 -999 -999 -999 -999
2008-04-17 08:09:31 51°17.324 2°52.165 -999 -999 -999 -999 -999
2008-04-17 08:09:36 51°17.324 2°52.165 -999 -999 -999 -999 -999
2008-04-17 08:09:41 51°17.324 2°52.164 -999 -999 -999 -999 -999
2008-04-17 08:09:46 51°17.324 2°52.164 -999 -999 -999 -999 -999
2008-04-17 08:09:51 51°17.324 2°52.163 -999 -999 -999 -999 -999
2008-04-17 08:09:56 51°17.324 2°52.162 -999 -999 -999 -999 -999
2008-04-17 08:10:01 51°17.324 2°52.162 -999 -999 -999 -999 -999
2008-04-17 08:10:06 51°17.324 2°52.161 -999 -999 -999 -999 -999
2008-04-17 08:10:11 51°17.324 2°52.16 -999 -999 -999 -999 -999
2008-04-17 08:10:15 51°17.323 2°52.159 -999 -999 -999 -999 -999
2008-04-17 08:10:21 51°17.323 2°52.158 -999 -999 -999 -999 -999
2008-04-17 08:10:26 51°17.323 2°52.158 -999 -999 -999 -999 -999
2008-04-17 08:10:31 51°17.323 2°52.157 -999 -999 -999 -999 -999
2008-04-17 08:10:36 51°17.323 2°52.156 -999 -999 -999 -999 -999
2008-04-17 08:10:40 51°17.323 2°52.155 -999 -999 -999 -999 -999
2008-04-17 08:10:46 51°17.323 2°52.154 -999 -999 -999 -999 -999
2008-04-17 08:10:51 51°17.323 2°52.153 -999 -999 -999 -999 -999
2008-04-17 08:10:56 51°17.323 2°52.152 -999 -999 -999 -999 -999
2008-04-17 08:11:01 51°17.323 2°52.151 -999 -999 -999 -999 -999
2008-04-17 08:11:06 51°17.323 2°52.151 -999 -999 -999 -999 -999
2008-04-17 08:11:11 51°17.322 2°52.15 -999 -999 -999 -999 -999
2008-04-17 08:11:16 51°17.322 2°52.149 -999 -999 -999 -999 -999
2008-04-17 08:11:21 51°17.322 2°52.148 -999 -999 -999 -999 -999
2008-04-17 08:11:26 51°17.322 2°52.147 -999 -999 -999 -999 -999
2008-04-17 08:11:31 51°17.322 2°52.146 -999 -999 -999 -999 -999
2008-04-17 08:11:36 51°17.322 2°52.145 -999 -999 -999 -999 -999
2008-04-17 08:11:41 51°17.321 2°52.144 -999 -999 -999 -999 -999
2008-04-17 08:11:46 51°17.321 2°52.143 -999 -999 -999 -999 -999
2008-04-17 08:11:51 51°17.321 2°52.142 -999 -999 -999 -999 -999
2008-04-17 08:11:56 51°17.321 2°52.141 -999 -999 -999 -999 -999
2008-04-17 08:12:01 51°17.32 2°52.14 -999 -999 -999 -999 -999
2008-04-17 08:12:06 51°17.32 2°52.139 -999 -999 -999 -999 -999
2008-04-17 08:12:11 51°17.32 2°52.138 -999 -999 -999 -999 -999
2008-04-17 08:12:16 51°17.32 2°52.137 -999 -999 -999 -999 -999
2008-04-17 08:12:21 51°17.319 2°52.136 -999 -999 -999 -999 -999
2008-04-17 08:12:26 51°17.319 2°52.134 -999 -999 -999 -999 -999
2008-04-17 08:12:31 51°17.319 2°52.133 -999 -999 -999 -999 -999
2008-04-17 08:12:36 51°17.319 2°52.132 -999 -999 -999 -999 -999
2008-04-17 08:12:41 51°17.319 2°52.131 -999 -999 -999 -999 -999
2008-04-17 08:12:46 51°17.318 2°52.13 -999 -999 -999 -999 -999
2008-04-17 08:12:51 51°17.318 2°52.129 -999 -999 -999 -999 -999
2008-04-17 08:12:56 51°17.318 2°52.128 -999 -999 -999 -999 -999
2008-04-17 08:13:01 51°17.318 2°52.126 -999 -999 -999 -999 -999
2008-04-17 08:13:06 51°17.317 2°52.125 -999 -999 -999 -999 -999
2008-04-17 08:13:11 51°17.317 2°52.124 -999 -999 -999 -999 -999
2008-04-17 08:13:16 51°17.317 2°52.122 -999 -999 -999 -999 -999
2008-04-17 08:13:21 51°17.317 2°52.121 -999 -999 -999 -999 -999
2008-04-17 08:13:26 51°17.317 2°52.121 -999 -999 -999 -999 -999
2008-04-17 08:13:31 51°17.317 2°52.12 -999 -999 -999 -999 -999
2008-04-17 08:13:36 51°17.318 2°52.12 -999 -999 -999 -999 -999
2008-04-17 08:13:40 51°17.318 2°52.119 -999 -999 -999 -999 -999
2008-04-17 08:13:46 51°17.319 2°52.12 -999 -999 -999 -999 -999
2008-04-17 08:13:51 51°17.32 2°52.121 -999 -999 -999 -999 -999
2008-04-17 08:13:56 51°17.321 2°52.122 -999 -999 -999 -999 -999
2008-04-17 08:14:01 51°17.322 2°52.123 -999 -999 -999 -999 -999
2008-04-17 08:14:06 51°17.323 2°52.126 -999 -999 -999 -999 -999
2008-04-17 08:14:11 51°17.324 2°52.129 -999 -999 -999 -999 -999
2008-04-17 08:14:16 51°17.325 2°52.132 -999 -999 -999 -999 -999
2008-04-17 08:14:21 51°17.326 2°52.136 -999 -999 -999 -999 -999
2008-04-17 08:14:26 51°17.327 2°52.139 -999 -999 -999 -999 -999
2008-04-17 08:14:31 51°17.326 2°52.143 -999 -999 -999 -999 -999
2008-04-17 08:14:36 51°17.326 2°52.146 -999 -999 -999 -999 -999
2008-04-17 08:14:41 51°17.326 2°52.15 -999 -999 -999 -999 -999
2008-04-17 08:14:46 51°17.325 2°52.153 -999 -999 -999 -999 -999
2008-04-17 08:14:51 51°17.325 2°52.155 -999 -999 -999 -999 -999
2008-04-17 08:14:56 51°17.324 2°52.158 -999 -999 -999 -999 -999
2008-04-17 08:15:01 51°17.323 2°52.161 -999 -999 -999 -999 -999
2008-04-17 08:15:06 51°17.323 2°52.163 -999 -999 -999 -999 -999
2008-04-17 08:15:11 51°17.322 2°52.165 -999 -999 -999 -999 -999
2008-04-17 08:15:16 51°17.32 2°52.168 -999 -999 -999 -999 -999
2008-04-17 08:15:21 51°17.319 2°52.17 -999 -999 -999 -999 -999
2008-04-17 08:15:26 51°17.318 2°52.172 -999 -999 -999 -999 -999
2008-04-17 08:15:31 51°17.316 2°52.174 -999 -999 -999 -999 -999
2008-04-17 08:15:36 51°17.315 2°52.176 -999 -999 -999 -999 -999
2008-04-17 08:15:40 51°17.313 2°52.178 -999 -999 -999 -999 -999
2008-04-17 08:15:46 51°17.311 2°52.18 -999 -999 -999 -999 -999
2008-04-17 08:15:51 51°17.309 2°52.182 -999 -999 -999 -999 -999
2008-04-17 08:15:56 51°17.307 2°52.185 -999 -999 -999 -999 -999
2008-04-17 08:16:01 51°17.304 2°52.187 -999 -999 -999 -999 -999
2008-04-17 08:16:06 51°17.301 2°52.189 -999 -999 -999 -999 -999
2008-04-17 08:16:11 51°17.298 2°52.191 -999 -999 -999 -999 -999
2008-04-17 08:16:16 51°17.294 2°52.193 -999 -999 -999 -999 -999
2008-04-17 08:16:21 51°17.29 2°52.195 -999 -999 -999 -999 -999
2008-04-17 08:16:26 51°17.286 2°52.196 -999 -999 -999 -999 -999
2008-04-17 08:16:31 51°17.281 2°52.197 -999 -999 -999 -999 -999
2008-04-17 08:16:36 51°17.276 2°52.197 -999 -999 -999 -999 -999
2008-04-17 08:16:41 51°17.271 2°52.197 -999 -999 -999 -999 -999
2008-04-17 08:16:46 51°17.266 2°52.195 -999 -999 -999 -999 -999
2008-04-17 08:16:51 51°17.261 2°52.194 -999 -999 -999 -999 -999
2008-04-17 08:16:56 51°17.255 2°52.191 -999 -999 -999 -999 -999
2008-04-17 08:17:01 51°17.25 2°52.188 -999 -999 -999 -999 -999
2008-04-17 08:17:06 51°17.244 2°52.184 -999 -999 -999 -999 -999
2008-04-17 08:17:11 51°17.239 2°52.18 -999 -999 -999 -999 -999
2008-04-17 08:17:16 51°17.234 2°52.175 -999 -999 -999 -999 -999
2008-04-17 08:17:21 51°17.229 2°52.17 -999 -999 -999 -999 -999
2008-04-17 08:17:26 51°17.223 2°52.165 -999 -999 -999 -999 -999
2008-04-17 08:17:31 51°17.218 2°52.159 -999 -999 -999 -999 -999
2008-04-17 08:17:36 51°17.213 2°52.154 -999 -999 -999 -999 -999
2008-04-17 08:17:40 51°17.209 2°52.149 -999 -999 -999 -999 -999
2008-04-17 08:17:46 51°17.202 2°52.143 -999 -999 -999 -999 -999
2008-04-17 08:17:51 51°17.197 2°52.137 -999 -999 -999 -999 -999
2008-04-17 08:17:56 51°17.192 2°52.132 -999 -999 -999 -999 -999
2008-04-17 08:18:01 51°17.186 2°52.126 -999 -999 -999 -999 -999
2008-04-17 08:18:06 51°17.181 2°52.122 -999 -999 -999 -999 -999
2008-04-17 08:18:11 51°17.176 2°52.117 -999 -999 -999 -999 -999
2008-04-17 08:18:16 51°17.171 2°52.113 -999 -999 -999 -999 -999
2008-04-17 08:18:21 51°17.166 2°52.108 -999 -999 -999 -999 -999
2008-04-17 08:18:26 51°17.161 2°52.105 -999 -999 -999 -999 -999
2008-04-17 08:18:31 51°17.157 2°52.101 -999 -999 -999 -999 -999
2008-04-17 08:18:36 51°17.152 2°52.098 -999 -999 -999 -999 -999
2008-04-17 08:18:41 51°17.148 2°52.094 -999 -999 -999 -999 -999
2008-04-17 08:18:46 51°17.143 2°52.091 -999 -999 -999 -999 -999
2008-04-17 08:18:51 51°17.139 2°52.088 -999 -999 -999 -999 -999
2008-04-17 08:18:56 51°17.135 2°52.085 -999 -999 -999 -999 -999
2008-04-17 08:19:01 51°17.131 2°52.081 -999 -999 -999 -999 -999
2008-04-17 08:19:06 51°17.127 2°52.079 -999 -999 -999 -999 -999
2008-04-17 08:19:11 51°17.123 2°52.076 -999 -999 -999 -999 -999
2008-04-17 08:19:16 51°17.119 2°52.073 -999 -999 -999 -999 -999
2008-04-17 08:19:21 51°17.116 2°52.07 -999 -999 -999 -999 -999
2008-04-17 08:19:26 51°17.112 2°52.067 -999 -999 -999 -999 -999
2008-04-17 08:19:31 51°17.109 2°52.064 -999 -999 -999 -999 -999
2008-04-17 08:19:36 51°17.106 2°52.061 -999 -999 -999 -999 -999
2008-04-17 08:19:41 51°17.102 2°52.059 -999 -999 -999 -999 -999
2008-04-17 08:19:46 51°17.099 2°52.056 -999 -999 -999 -999 -999
2008-04-17 08:19:51 51°17.096 2°52.053 -999 -999 -999 -999 -999
2008-04-17 08:19:56 51°17.093 2°52.05 -999 -999 -999 -999 -999
2008-04-17 08:20:00 51°17.09 2°52.048 -999 -999 -999 -999 -999
2008-04-17 08:20:06 51°17.087 2°52.045 -999 -999 -999 -999 -999
2008-04-17 08:20:11 51°17.083 2°52.043 -999 -999 -999 -999 -999
2008-04-17 08:20:16 51°17.08 2°52.039 -999 -999 -999 -999 -999
2008-04-17 08:20:21 51°17.077 2°52.036 -999 -999 -999 -999 -999
2008-04-17 08:20:26 51°17.074 2°52.034 -999 -999 -999 -999 -999
2008-04-17 08:20:31 51°17.072 2°52.03 -999 -999 -999 -999 -999
2008-04-17 08:20:36 51°17.069 2°52.027 -999 -999 -999 -999 -999
2008-04-17 08:20:41 51°17.066 2°52.024 -999 -999 -999 -999 -999
2008-04-17 08:20:46 51°17.063 2°52.02 -999 -999 -999 -999 -999
2008-04-17 08:20:51 51°17.06 2°52.016 -999 -999 -999 -999 -999
2008-04-17 08:20:56 51°17.058 2°52.013 -999 -999 -999 -999 -999
2008-04-17 08:21:01 51°17.055 2°52.008 -999 -999 -999 -999 -999
2008-04-17 08:21:06 51°17.052 2°52.004 -999 -999 -999 -999 -999
2008-04-17 08:21:11 51°17.05 2°52 -999 -999 -999 -999 -999
2008-04-17 08:21:16 51°17.047 2°51.995 -999 -999 -999 -999 -999
2008-04-17 08:21:21 51°17.045 2°51.991 -999 -999 -999 -999 -999
2008-04-17 08:21:26 51°17.042 2°51.986 -999 -999 -999 -999 -999
2008-04-17 08:21:31 51°17.039 2°51.981 -999 -999 -999 -999 -999
2008-04-17 08:21:36 51°17.037 2°51.976 -999 -999 -999 -999 -999
2008-04-17 08:21:41 51°17.034 2°51.972 -999 -999 -999 -999 -999
2008-04-17 08:21:46 51°17.031 2°51.967 -999 -999 -999 -999 -999
2008-04-17 08:21:51 51°17.028 2°51.962 -999 -999 -999 -999 -999
2008-04-17 08:21:56 51°17.025 2°51.957 -999 -999 -999 -999 -999
2008-04-17 08:22:01 51°17.022 2°51.952 -999 -999 -999 -999 -999
2008-04-17 08:22:06 51°17.02 2°51.947 -999 -999 -999 -999 -999
2008-04-17 08:22:11 51°17.016 2°51.943 -999 -999 -999 -999 -999
2008-04-17 08:22:16 51°17.013 2°51.938 -999 -999 -999 -999 -999
2008-04-17 08:22:21 51°17.01 2°51.933 -999 -999 -999 -999 -999
2008-04-17 08:22:26 51°17.007 2°51.928 -999 -999 -999 -999 -999
2008-04-17 08:22:31 51°17.004 2°51.924 -999 -999 -999 -999 -999
2008-04-17 08:22:36 51°17 2°51.919 -999 -999 -999 -999 -999
2008-04-17 08:22:41 51°16.997 2°51.915 -999 -999 -999 -999 -999
2008-04-17 08:22:46 51°16.994 2°51.91 -999 -999 -999 -999 -999
2008-04-17 08:22:51 51°16.991 2°51.905 -999 -999 -999 -999 -999
2008-04-17 08:22:56 51°16.987 2°51.901 -999 -999 -999 -999 -999
2008-04-17 08:23:01 51°16.984 2°51.896 -999 -999 -999 -999 -999
2008-04-17 08:23:06 51°16.981 2°51.891 -999 -999 -999 -999 -999
2008-04-17 08:23:11 51°16.977 2°51.887 -999 -999 -999 -999 -999
2008-04-17 08:23:16 51°16.974 2°51.882 -999 -999 -999 -999 -999
2008-04-17 08:23:21 51°16.971 2°51.877 -999 -999 -999 -999 -999
2008-04-17 08:23:26 51°16.967 2°51.872 -999 -999 -999 -999 -999
2008-04-17 08:23:31 51°16.964 2°51.868 -999 -999 -999 -999 -999
2008-04-17 08:23:36 51°16.961 2°51.862 -999 -999 -999 -999 -999
2008-04-17 08:23:41 51°16.957 2°51.857 -999 -999 -999 -999 -999
2008-04-17 08:23:45 51°16.955 2°51.853 -999 -999 -999 -999 -999
2008-04-17 08:23:50 51°16.952 2°51.848 -999 -999 -999 -999 -999
2008-04-17 08:23:55 51°16.948 2°51.843 -999 -999 -999 -999 -999
2008-04-17 08:24:00 51°16.945 2°51.838 -999 -999 -999 -999 -999
2008-04-17 08:24:05 51°16.941 2°51.833 -999 -999 -999 -999 -999
2008-04-17 08:24:10 51°16.938 2°51.828 -999 -999 -999 -999 -999
2008-04-17 08:24:15 51°16.935 2°51.824 -999 -999 -999 -999 -999
2008-04-17 08:24:20 51°16.932 2°51.818 -999 -999 -999 -999 -999
2008-04-17 08:24:26 51°16.928 2°51.812 -999 -999 -999 -999 -999
2008-04-17 08:24:31 51°16.924 2°51.807 -999 -999 -999 -999 -999
2008-04-17 08:24:35 51°16.922 2°51.803 -999 -999 -999 -999 -999
2008-04-17 08:24:40 51°16.918 2°51.798 -999 -999 -999 -999 -999
2008-04-17 08:24:46 51°16.914 2°51.792 -999 -999 -999 -999 -999
2008-04-17 08:24:51 51°16.911 2°51.787 -999 -999 -999 -999 -999
2008-04-17 08:24:55 51°16.908 2°51.783 -999 -999 -999 -999 -999
2008-04-17 08:25:00 51°16.905 2°51.778 -999 -999 -999 -999 -999
2008-04-17 08:25:06 51°16.901 2°51.772 -999 -999 -999 -999 -999
2008-04-17 08:25:11 51°16.897 2°51.767 -999 -999 -999 -999 -999
2008-04-17 08:25:15 51°16.895 2°51.763 -999 -999 -999 -999 -999
2008-04-17 08:25:20 51°16.892 2°51.758 -999 -999 -999 -999 -999
2008-04-17 08:25:25 51°16.888 2°51.753 -999 -999 -999 -999 -999
2008-04-17 08:25:31 51°16.884 2°51.747 -999 -999 -999 -999 -999
2008-04-17 08:25:35 51°16.882 2°51.743 -999 -999 -999 -999 -999
2008-04-17 08:25:40 51°16.878 2°51.738 -999 -999 -999 -999 -999
2008-04-17 08:25:45 51°16.875 2°51.733 -999 -999 -999 -999 -999
2008-04-17 08:25:50 51°16.872 2°51.728 -999 -999 -999 -999 -999
2008-04-17 08:25:55 51°16.869 2°51.722 -999 -999 -999 -999 -999
2008-04-17 08:26:00 51°16.866 2°51.717 -999 -999 -999 -999 -999
2008-04-17 08:26:05 51°16.862 2°51.712 -999 -999 -999 -999 -999
2008-04-17 08:26:10 51°16.859 2°51.707 -999 -999 -999 -999 -999
2008-04-17 08:26:15 51°16.856 2°51.702 -999 -999 -999 -999 -999
2008-04-17 08:26:20 51°16.853 2°51.697 -999 -999 -999 -999 -999
2008-04-17 08:26:25 51°16.85 2°51.692 -999 -999 -999 -999 -999
2008-04-17 08:26:31 51°16.846 2°51.687 -999 -999 -999 -999 -999
2008-04-17 08:26:35 51°16.843 2°51.682 -999 -999 -999 -999 -999
2008-04-17 08:26:40 51°16.84 2°51.678 -999 -999 -999 -999 -999
2008-04-17 08:26:46 51°16.836 2°51.672 -999 -999 -999 -999 -999
2008-04-17 08:26:51 51°16.833 2°51.667 -999 -999 -999 -999 -999
2008-04-17 08:26:55 51°16.83 2°51.663 -999 -999 -999 -999 -999
2008-04-17 08:27:00 51°16.827 2°51.658 -999 -999 -999 -999 -999
2008-04-17 08:27:06 51°16.823 2°51.652 -999 -999 -999 -999 -999
2008-04-17 08:27:11 51°16.82 2°51.648 -999 -999 -999 -999 -999
2008-04-17 08:27:15 51°16.817 2°51.644 -999 -999 -999 -999 -999
2008-04-17 08:27:20 51°16.814 2°51.639 -999 -999 -999 -999 -999
2008-04-17 08:27:25 51°16.811 2°51.634 -999 -999 -999 -999 -999
2008-04-17 08:27:31 51°16.807 2°51.628 -999 -999 -999 -999 -999
2008-04-17 08:27:35 51°16.804 2°51.624 -999 -999 -999 -999 -999
2008-04-17 08:27:40 51°16.801 2°51.62 -999 -999 -999 -999 -999
2008-04-17 08:27:45 51°16.798 2°51.615 -999 -999 -999 -999 -999
2008-04-17 08:27:51 51°16.794 2°51.609 -999 -999 -999 -999 -999
2008-04-17 08:27:55 51°16.791 2°51.606 -999 -999 -999 -999 -999
2008-04-17 08:28:00 51°16.788 2°51.6 -999 -999 -999 -999 -999
2008-04-17 08:28:05 51°16.785 2°51.596 -999 -999 -999 -999 -999
2008-04-17 08:28:11 51°16.781 2°51.59 -999 -999 -999 -999 -999
2008-04-17 08:28:15 51°16.779 2°51.586 -999 -999 -999 -999 -999
2008-04-17 08:28:20 51°16.776 2°51.582 -999 -999 -999 -999 -999
2008-04-17 08:28:25 51°16.773 2°51.576 -999 -999 -999 -999 -999
2008-04-17 08:28:30 51°16.769 2°51.572 -999 -999 -999 -999 -999
2008-04-17 08:28:36 51°16.765 2°51.566 -999 -999 -999 -999 -999
2008-04-17 08:28:40 51°16.763 2°51.562 -999 -999 -999 -999 -999
2008-04-17 08:28:46 51°16.759 2°51.556 -999 -999 -999 -999 -999
2008-04-17 08:28:51 51°16.756 2°51.551 -999 -999 -999 -999 -999
2008-04-17 08:28:55 51°16.753 2°51.547 -999 -999 -999 -999 -999
2008-04-17 08:29:00 51°16.751 2°51.542 -999 -999 -999 -999 -999
2008-04-17 08:29:06 51°16.746 2°51.536 -999 -999 -999 -999 -999
2008-04-17 08:29:11 51°16.743 2°51.531 -999 -999 -999 -999 -999
2008-04-17 08:29:15 51°16.741 2°51.527 -999 -999 -999 -999 -999
2008-04-17 08:29:20 51°16.738 2°51.522 -999 -999 -999 -999 -999
2008-04-17 08:29:26 51°16.734 2°51.516 -999 -999 -999 -999 -999
2008-04-17 08:29:31 51°16.731 2°51.511 -999 -999 -999 -999 -999
2008-04-17 08:29:35 51°16.728 2°51.507 -999 -999 -999 -999 -999
2008-04-17 08:29:40 51°16.725 2°51.503 -999 -999 -999 -999 -999
2008-04-17 08:29:45 51°16.722 2°51.497 -999 -999 -999 -999 -999
2008-04-17 08:29:51 51°16.718 2°51.491 -999 -999 -999 -999 -999
2008-04-17 08:29:55 51°16.715 2°51.488 -999 -999 -999 -999 -999
2008-04-17 08:30:00 51°16.712 2°51.483 -999 -999 -999 -999 -999
2008-04-17 08:30:05 51°16.709 2°51.477 -999 -999 -999 -999 -999
2008-04-17 08:30:11 51°16.705 2°51.472 -999 -999 -999 -999 -999
2008-04-17 08:30:15 51°16.703 2°51.468 -999 -999 -999 -999 -999
2008-04-17 08:30:20 51°16.7 2°51.463 -999 -999 -999 -999 -999
2008-04-17 08:30:25 51°16.697 2°51.458 -999 -999 -999 -999 -999
2008-04-17 08:30:30 51°16.694 2°51.453 -999 -999 -999 -999 -999
2008-04-17 08:30:35 51°16.69 2°51.448 -999 -999 -999 -999 -999
2008-04-17 08:30:40 51°16.688 2°51.443 -999 -999 -999 -999 -999
2008-04-17 08:30:45 51°16.684 2°51.438 -999 -999 -999 -999 -999
2008-04-17 08:30:51 51°16.681 2°51.432 -999 -999 -999 -999 -999
2008-04-17 08:30:55 51°16.678 2°51.428 -999 -999 -999 -999 -999
2008-04-17 08:31:00 51°16.675 2°51.423 -999 -999 -999 -999 -999
2008-04-17 08:31:06 51°16.672 2°51.417 -999 -999 -999 -999 -999
2008-04-17 08:31:11 51°16.669 2°51.412 -999 -999 -999 -999 -999
2008-04-17 08:31:15 51°16.666 2°51.408 -999 -999 -999 -999 -999
2008-04-17 08:31:20 51°16.663 2°51.404 -999 -999 -999 -999 -999
2008-04-17 08:31:26 51°16.66 2°51.398 -999 -999 -999 -999 -999
2008-04-17 08:31:31 51°16.657 2°51.393 -999 -999 -999 -999 -999
2008-04-17 08:31:35 51°16.655 2°51.389 -999 -999 -999 -999 -999
2008-04-17 08:31:40 51°16.652 2°51.384 -999 -999 -999 -999 -999
2008-04-17 08:31:46 51°16.649 2°51.378 -999 -999 -999 -999 -999
2008-04-17 08:31:51 51°16.646 2°51.373 -999 -999 -999 -999 -999
2008-04-17 08:31:55 51°16.645 2°51.369 -999 -999 -999 -999 -999
2008-04-17 08:32:00 51°16.643 2°51.364 -999 -999 -999 -999 -999
2008-04-17 08:32:06 51°16.641 2°51.357 -999 -999 -999 -999 -999
2008-04-17 08:32:11 51°16.639 2°51.352 -999 -999 -999 -999 -999
2008-04-17 08:32:15 51°16.638 2°51.348 -999 -999 -999 -999 -999
2008-04-17 08:32:20 51°16.637 2°51.342 -999 -999 -999 -999 -999
2008-04-17 08:32:25 51°16.635 2°51.337 -999 -999 -999 -999 -999
2008-04-17 08:32:30 51°16.635 2°51.332 -999 -999 -999 -999 -999
2008-04-17 08:32:35 51°16.634 2°51.327 -999 -999 -999 -999 -999